Location: Wangen+im+Allg�u
(47.7098°N, 9.8383°E)
Time: 06:31:22
(UTC+01:00)

ISS - Visible Passes

Search period start: 24 November 2017 00:00
Search period end: 04 December 2017 00:00
Orbit: 402 x 407 km, 51.6° (Epoch: 24 November)

Date Brightness Start Highest point End Pass type
(mag) Time Alt. Az. Time Alt. Az. Time Alt. Az.
27 Nov -1.1 19:07:06 10° SW 19:07:51 15° SSW 19:07:51 15° SSW visible
28 Nov -2.3 18:15:18 10° SSW 18:17:50 23° SE 18:17:50 23° SE visible
29 Nov -1.6 17:24:03 10° SSE 17:25:49 14° SE 17:27:34 10° ESE visible
29 Nov -2.1 18:58:32 10° WSW 19:00:25 31° SW 19:00:25 31° SW visible
30 Nov -3.3 18:06:20 10° SW 18:09:29 45° SSE 18:10:15 36° ESE visible
30 Nov -0.3 19:42:45 10° W 19:42:54 11° W 19:42:54 11° W visible
01 Dec -2.4 17:14:23 10° SSW 17:17:12 27° SE 17:20:01 10° E visible
01 Dec -2.7 18:50:13 10° WSW 18:52:40 45° W 18:52:40 45° W visible
02 Dec -3.9 17:57:47 10° WSW 18:01:04 84° SSE 18:02:23 33° ENE visible
02 Dec -0.5 19:34:36 10° WNW 19:35:02 13° WNW 19:35:02 13° WNW visible
03 Dec -3.4 17:05:29 10° SW 17:08:41 53° SSE 17:11:54 10° ENE visible
03 Dec -2.9 18:42:02 10° W 18:44:42 42° NW 18:44:42 42° NW visible
